Location: Gaast
(52.9002°N, 5.8891°E)
Time: 13:49:51
(UTC+00:00)

ACS3 Solar Sail - Pass Details

Date: 21 January 2026
Orbit: 900 x 968 km, 97.2° (Epoch: 10 February)

Event Time Altitude Azimuth Distance (km) Brightness Sun altitude
Rises 02:30:48 0° 12° (NNE) 3,648 5.2 -44.5°
Reaches altitude 10° 02:33:17 10° 10° (N) 2,689 4.4 -44.2°
Enters shadow 02:33:26 11° 10° (N) 2,628 4.4 -44.2°
